Budapest Ferihegy, Hungary

1:09 PM CEST on March 26, 2017 (GMT +0200)
Ferihegy

Weather History for LHBP - July, 2013

Change the Weather History Date:

Wednesday, July 17, 2013

  Actual Average Record
Temperature  
Mean Temperature 68 °F -  
Max Temperature 84 °F 77 °F 98 °F (2007)
Min Temperature 53 °F 56 °F 46 °F (2006)
Cooling Degree Days 4    
Growing Degree Days 18 (Base 50)    
Moisture  
Dew Point 52 °F    
Average Humidity 56    
Maximum Humidity 88    
Minimum Humidity 29    
Precipitation  
Precipitation 0.00 in - - ()
Sea Level Pressure  
Sea Level Pressure 30.16 in    
Wind  
Wind Speed 3 mph ()    
Max Wind Speed 9 mph    
Max Gust Speed -    
Averages and records for this station are not official NWS values.
T = Trace of Precipitation, MM = Missing Value Source: Averaged Metar Reports

Daily Weather History Graph

Daily Weather History Graph

Search for Another Location

Airport or City:

Trip Planner

Search our weather history database for the weather conditions in past years. The results will help you decide how hot, cold, wet, or windy it might be!

Date:

Astronomy

Jul. 17, 2013 Rise Set
Actual Time 5:03 AM CEST 8:34 PM CEST
Civil Twilight 4:25 AM CEST 9:12 PM CEST
Nautical Twilight 3:34 AM CEST 10:02 PM CEST
Astronomical Twilight 2:25 AM CEST 11:10 PM CEST
Moon 2:55 PM CEST (7/17) 12:08 AM CEST (7/17)
Length of Visible Light 16h 47m
Length of Day
15h 30m
Waxing Gibbous, 64% of the Moon is Illuminated
Jul 17
Waxing Gibbous
Jul 22
Full
Jul 29
Last Quarter
Aug 6
New
Aug 14
First Quarter

Hourly Weather History & Observations

Time (CEST) Temp. Dew Point Humidity Pressure Visibility Wind Dir Wind Speed Gust Speed Precip Events Conditions
12:00 AM 60.8 °F 51.8 °F 72% 30.18 in - Variable 2.3 mph - N/A   Clear
12:30 AM 59.0 °F 51.8 °F 77% 30.18 in - Variable 1.2 mph - N/A   Clear
1:00 AM 57.2 °F 51.8 °F 82% 30.18 in - Variable 1.2 mph - N/A   Clear
1:30 AM 57.2 °F 51.8 °F 82% 30.18 in - Variable 1.2 mph - N/A   Clear
2:00 AM 55.4 °F 51.8 °F 88% 30.18 in - Variable 1.2 mph - N/A   Clear
2:30 AM 55.4 °F 51.8 °F 88% 30.18 in - Variable 1.2 mph - N/A   Clear
3:00 AM 55.4 °F 51.8 °F 88% 30.18 in - Variable 2.3 mph - N/A   Clear
3:30 AM 53.6 °F 50.0 °F 88% 30.18 in - Variable 3.5 mph - N/A   Clear
4:00 AM 57.2 °F 50.0 °F 77% 30.18 in - Variable 3.5 mph - N/A   Clear
4:30 AM 53.6 °F 50.0 °F 88% 30.18 in - Variable 2.3 mph - N/A   Clear
5:00 AM 57.2 °F 51.8 °F 82% 30.18 in - Variable 2.3 mph - N/A   Clear
5:30 AM 55.4 °F 51.8 °F 88% 30.18 in - Variable 2.3 mph - N/A   Clear
6:00 AM 59.0 °F 53.6 °F 82% 30.18 in - Variable 2.3 mph - N/A   Clear
6:30 AM 62.6 °F 55.4 °F 77% 30.18 in - Calm Calm - N/A   Clear
7:00 AM 66.2 °F 53.6 °F 64% 30.21 in - Variable 1.2 mph - N/A   Clear
7:30 AM 68.0 °F 53.6 °F 60% 30.21 in - Variable 2.3 mph - N/A   Clear
8:00 AM 68.0 °F 53.6 °F 60% 30.21 in - SSE 5.8 mph - N/A   Clear
8:30 AM 71.6 °F 51.8 °F 50% 30.21 in - SE 8.1 mph - N/A   Clear
9:00 AM 73.4 °F 53.6 °F 50% 30.21 in - SSE 9.2 mph - N/A   Clear
9:30 AM 75.2 °F 53.6 °F 47% 30.18 in - SSE 9.2 mph - N/A   Clear
10:00 AM 75.2 °F 53.6 °F 47% 30.18 in - SSE 8.1 mph - N/A   Clear
10:30 AM 77.0 °F 53.6 °F 44% 30.18 in - ESE 5.8 mph - N/A   Clear
11:00 AM 77.0 °F 53.6 °F 44% 30.18 in - SSE 6.9 mph - N/A   Clear
11:30 AM 80.6 °F 51.8 °F 37% 30.18 in - SSW 6.9 mph - N/A   Clear
12:00 PM 78.8 °F 50.0 °F 36% 30.18 in - NNW 4.6 mph - N/A   Clear
12:30 PM 80.6 °F 48.2 °F 32% 30.18 in - WSW 6.9 mph - N/A   Clear
1:00 PM 80.6 °F 48.2 °F 32% 30.18 in - SSW 6.9 mph - N/A   Clear
1:30 PM 80.6 °F 50.0 °F 34% 30.15 in - West 8.1 mph - N/A   Clear
2:00 PM 80.6 °F 50.0 °F 34% 30.15 in - SW 4.6 mph - N/A   Clear
2:30 PM 84.2 °F 50.0 °F 30% 30.15 in - East 4.6 mph - N/A   Clear
3:00 PM 84.2 °F 48.2 °F 29% 30.15 in - NW 4.6 mph - N/A   Clear
3:30 PM 82.4 °F 50.0 °F 32% 30.15 in - NNW 5.8 mph - N/A   Clear
4:00 PM 82.4 °F 50.0 °F 32% 30.12 in - Variable 3.5 mph - N/A   Clear
4:30 PM 82.4 °F 50.0 °F 32% 30.12 in - Variable 3.5 mph - N/A   Clear
5:00 PM 82.4 °F 50.0 °F 32% 30.12 in - Variable 1.2 mph - N/A   Clear
5:30 PM 82.4 °F 50.0 °F 32% 30.12 in - Variable 2.3 mph - N/A   Clear
6:00 PM 82.4 °F 51.8 °F 35% 30.12 in - ENE 4.6 mph - N/A   Clear
6:30 PM 82.4 °F 50.0 °F 32% 30.12 in - East 4.6 mph - N/A   Clear
7:00 PM 82.4 °F 50.0 °F 32% 30.12 in - Variable 3.5 mph - N/A   Clear
7:30 PM 80.6 °F 51.8 °F 37% 30.12 in - Variable 3.5 mph - N/A   Clear
8:00 PM 78.8 °F 55.4 °F 44% 30.12 in - East 4.6 mph - N/A   Clear
8:30 PM 75.2 °F 55.4 °F 50% 30.12 in - Variable 2.3 mph - N/A   Clear
9:00 PM 69.8 °F 55.4 °F 60% 30.12 in - Variable 3.5 mph - N/A   Clear
9:30 PM 68.0 °F 57.2 °F 68% 30.12 in - Variable 2.3 mph - N/A   Clear
10:00 PM 68.0 °F 57.2 °F 68% 30.12 in - Variable 3.5 mph - N/A   Clear
10:30 PM 66.2 °F 55.4 °F 68% 30.12 in - Variable 2.3 mph - N/A   Clear
11:00 PM 64.4 °F 55.4 °F 73% 30.12 in - Variable 3.5 mph - N/A   Clear
11:30 PM 62.6 °F 53.6 °F 72% 30.15 in - NE 4.6 mph - N/A   Clear